TimeCDT,TemperatureF,Dew PointF,Humidity,Sea Level PressureIn,VisibilityMPH,Wind Direction,Wind SpeedMPH,Gust SpeedMPH,PrecipitationIn,Events,Conditions,WindDirDegrees,DateUTC
12:08 AM,64.0,49.1,58,-9999,-9999.0,WSW,21.9,-,N/A,,Unknown,240,2013-05-25 05:08:00
12:28 AM,63.0,50.2,63,-9999,-9999.0,WSW,13.8,-,N/A,,Unknown,250,2013-05-25 05:28:00
12:48 AM,62.1,51.1,67,-9999,-9999.0,WSW,9.2,-,N/A,,Unknown,240,2013-05-25 05:48:00
1:08 AM,63.0,50.2,63,-9999,-9999.0,WNW,12.7,-,N/A,,Unknown,290,2013-05-25 06:08:00
1:28 AM,63.0,48.0,58,-9999,-9999.0,SW,17.3,-,N/A,,Unknown,220,2013-05-25 06:28:00
1:48 AM,66.9,50.2,55,-9999,-9999.0,SSE,13.8,-,N/A,,Unknown,150,2013-05-25 06:48:00
2:08 AM,64.0,52.2,65,-9999,-9999.0,South,9.2,-,N/A,,Unknown,170,2013-05-25 07:08:00
2:28 AM,63.0,50.2,63,-9999,-9999.0,South,15.0,-,N/A,,Unknown,170,2013-05-25 07:28:00
2:48 AM,64.9,48.0,54,-9999,-9999.0,South,13.8,-,N/A,,Unknown,180,2013-05-25 07:48:00
3:08 AM,64.9,49.1,56,-9999,-9999.0,South,13.8,-,N/A,,Unknown,190,2013-05-25 08:08:00
3:28 AM,64.0,48.0,56,-9999,-9999.0,South,16.1,-,N/A,,Unknown,190,2013-05-25 08:28:00
3:48 AM,63.0,48.0,58,-9999,-9999.0,South,17.3,-,N/A,,Unknown,190,2013-05-25 08:48:00
4:08 AM,63.0,50.2,63,-9999,-9999.0,South,18.4,-,N/A,,Unknown,170,2013-05-25 09:08:00
4:28 AM,63.0,50.2,63,-9999,-9999.0,South,20.7,-,N/A,,Unknown,170,2013-05-25 09:28:00
4:48 AM,64.0,51.1,63,-9999,-9999.0,South,21.9,-,N/A,,Unknown,170,2013-05-25 09:48:00
5:08 AM,64.9,52.2,63,-9999,-9999.0,South,27.6,-,N/A,,Unknown,170,2013-05-25 10:08:00
5:28 AM,66.0,54.1,65,-9999,-9999.0,West,24.2,-,N/A,,Unknown,260,2013-05-25 10:28:00
5:48 AM,64.0,51.1,63,-9999,-9999.0,SSW,18.4,-,N/A,,Unknown,200,2013-05-25 10:48:00
6:08 AM,64.0,52.2,65,-9999,-9999.0,SSW,18.4,-,N/A,,Unknown,200,2013-05-25 11:08:00
6:28 AM,63.0,52.2,68,-9999,-9999.0,South,16.1,-,N/A,,Unknown,190,2013-05-25 11:28:00
6:48 AM,62.1,51.1,67,-9999,-9999.0,South,18.4,-,N/A,,Unknown,190,2013-05-25 11:48:00
7:08 AM,62.1,51.1,67,-9999,-9999.0,South,19.6,-,N/A,,Unknown,190,2013-05-25 12:08:00
7:28 AM,62.1,52.2,70,-9999,-9999.0,South,17.3,-,N/A,,Unknown,190,2013-05-25 12:28:00
7:48 AM,63.0,52.2,68,-9999,-9999.0,South,17.3,-,N/A,,Unknown,190,2013-05-25 12:48:00
8:08 AM,64.0,53.1,67,-9999,-9999.0,South,15.0,-,N/A,,Unknown,190,2013-05-25 13:08:00
8:28 AM,64.9,53.1,65,-9999,-9999.0,South,17.3,-,N/A,,Unknown,190,2013-05-25 13:28:00
8:48 AM,66.0,53.1,63,-9999,-9999.0,SSW,19.6,-,N/A,,Unknown,200,2013-05-25 13:48:00
9:08 AM,68.0,53.1,59,-9999,-9999.0,SSW,23.0,-,N/A,,Unknown,200,2013-05-25 14:08:00
9:28 AM,69.1,53.1,57,-9999,-9999.0,SSW,17.3,-,N/A,,Unknown,210,2013-05-25 14:28:00
9:48 AM,70.0,53.1,55,-9999,-9999.0,SSW,18.4,-,N/A,,Unknown,210,2013-05-25 14:48:00
10:08 AM,71.1,52.2,51,-9999,-9999.0,SSW,21.9,-,N/A,,Unknown,210,2013-05-25 15:08:00
10:28 AM,72.0,56.1,57,-9999,-9999.0,SSW,16.1,-,N/A,,Unknown,210,2013-05-25 15:28:00
10:48 AM,73.0,55.0,53,-9999,-9999.0,SW,17.3,-,N/A,,Unknown,220,2013-05-25 15:48:00
11:08 AM,73.9,55.0,52,-9999,-9999.0,SSW,19.6,-,N/A,,Unknown,210,2013-05-25 16:08:00
11:28 AM,75.9,55.0,48,-9999,-9999.0,SW,21.9,-,N/A,,Unknown,220,2013-05-25 16:28:00
11:48 AM,77.0,55.0,47,-9999,-9999.0,SSW,20.7,-,N/A,,Unknown,210,2013-05-25 16:48:00
12:08 PM,79.0,55.0,44,-9999,-9999.0,SSW,19.6,-,N/A,,Unknown,200,2013-05-25 17:08:00
12:28 PM,82.0,55.0,39,-9999,-9999.0,SSW,19.6,-,N/A,,Unknown,200,2013-05-25 17:28:00
12:48 PM,82.9,54.1,37,-9999,-9999.0,SSW,23.0,-,N/A,,Unknown,200,2013-05-25 17:48:00
1:08 PM,84.9,54.1,35,-9999,-9999.0,SSW,20.7,-,N/A,,Unknown,200,2013-05-25 18:08:00
1:28 PM,87.1,54.1,32,-9999,-9999.0,South,17.3,-,N/A,,Unknown,180,2013-05-25 18:28:00
1:48 PM,88.0,52.2,29,-9999,-9999.0,SSW,16.1,-,N/A,,Unknown,200,2013-05-25 18:48:00
2:08 PM,89.1,51.1,27,-9999,-9999.0,SSW,17.3,-,N/A,,Unknown,210,2013-05-25 19:08:00
2:28 PM,90.0,50.2,25,-9999,-9999.0,SW,17.3,-,N/A,,Unknown,220,2013-05-25 19:28:00
2:48 PM,91.0,50.2,25,-9999,-9999.0,SW,19.6,-,N/A,,Unknown,220,2013-05-25 19:48:00
3:08 PM,91.0,49.1,24,-9999,-9999.0,SSW,17.3,-,N/A,,Unknown,200,2013-05-25 20:08:00
3:28 PM,91.9,48.0,22,-9999,-9999.0,SW,12.7,-,N/A,,Unknown,230,2013-05-25 20:28:00
3:48 PM,93.0,49.1,22,-9999,-9999.0,SW,12.7,-,N/A,,Unknown,220,2013-05-25 20:48:00
4:08 PM,93.0,45.1,19,-9999,-9999.0,South,13.8,-,N/A,,Unknown,190,2013-05-25 21:08:00
4:28 PM,93.0,45.1,19,-9999,-9999.0,SSW,13.8,-,N/A,,Unknown,210,2013-05-25 21:28:00
4:48 PM,93.0,46.0,20,-9999,-9999.0,South,12.7,-,N/A,,Unknown,190,2013-05-25 21:48:00
5:08 PM,93.9,49.1,22,-9999,-9999.0,SW,13.8,-,N/A,,Unknown,220,2013-05-25 22:08:00
5:28 PM,93.0,47.1,21,-9999,-9999.0,South,12.7,-,N/A,,Unknown,190,2013-05-25 22:28:00
5:48 PM,93.9,48.0,21,-9999,-9999.0,South,12.7,-,N/A,,Unknown,180,2013-05-25 22:48:00
6:08 PM,93.0,50.2,23,-9999,-9999.0,South,18.4,-,N/A,,Unknown,180,2013-05-25 23:08:00
6:28 PM,91.9,51.1,25,-9999,-9999.0,SSE,26.5,-,N/A,,Unknown,160,2013-05-25 23:28:00
6:48 PM,91.9,51.1,25,-9999,-9999.0,SSE,24.2,-,N/A,,Unknown,160,2013-05-25 23:48:00
7:08 PM,91.0,51.1,25,-9999,-9999.0,SSE,26.5,-,N/A,,Unknown,160,2013-05-26 00:08:00
7:28 PM,90.0,51.1,26,-9999,-9999.0,SSE,28.8,-,N/A,,Unknown,160,2013-05-26 00:28:00
7:48 PM,88.0,52.2,29,-9999,-9999.0,SSE,25.3,-,N/A,,Unknown,160,2013-05-26 00:48:00
8:08 PM,87.1,52.2,30,-9999,-9999.0,SSE,25.3,-,N/A,,Unknown,160,2013-05-26 01:08:00
8:28 PM,84.9,51.1,31,-9999,-9999.0,SSE,24.2,-,N/A,,Unknown,160,2013-05-26 01:28:00
8:48 PM,82.9,51.1,33,-9999,-9999.0,SSE,24.2,-,N/A,,Unknown,160,2013-05-26 01:48:00
9:08 PM,81.0,52.2,37,-9999,-9999.0,SSE,27.6,-,N/A,,Unknown,150,2013-05-26 02:08:00
9:28 PM,80.1,52.2,38,-9999,-9999.0,SSE,28.8,-,N/A,,Unknown,150,2013-05-26 02:28:00
9:48 PM,79.0,53.1,40,-9999,-9999.0,SSE,25.3,-,N/A,,Unknown,150,2013-05-26 02:48:00
10:08 PM,78.1,52.2,40,-9999,-9999.0,SSE,26.5,-,N/A,,Unknown,150,2013-05-26 03:08:00
10:28 PM,77.0,52.2,42,-9999,-9999.0,SSE,21.9,-,N/A,,Unknown,160,2013-05-26 03:28:00
10:48 PM,75.9,50.2,40,-9999,-9999.0,South,17.3,-,N/A,,Unknown,170,2013-05-26 03:48:00
11:08 PM,73.9,48.0,40,-9999,-9999.0,SSE,12.7,-,N/A,,Unknown,150,2013-05-26 04:08:00
11:28 PM,72.0,46.0,40,-9999,-9999.0,SSE,13.8,-,N/A,,Unknown,160,2013-05-26 04:28:00
11:48 PM,71.1,46.0,41,-9999,-9999.0,SSE,10.4,-,N/A,,Unknown,160,2013-05-26 04:48:00